Ask Your Question

Bernd Bausch's profile - karma

Bernd Bausch's karma change log

10 0 OpenStack Installation Guide Doesn't Work for CentOS 7 Full? ( 2020-05-27 21:40:30 -0500 )

10 0 Update instances metadata with cli ( 2020-05-27 21:16:37 -0500 )

15 0 magnum unable to authorise request in Openstack queens ( 2020-04-24 04:31:45 -0500 )

0 -15 magnum unable to authorise request in Openstack queens ( 2020-04-24 04:31:43 -0500 )

15 0 magnum unable to authorise request in Openstack queens ( 2020-04-24 04:31:42 -0500 )

0 -15 magnum unable to authorise request in Openstack queens ( 2020-04-24 04:31:39 -0500 )

15 0 magnum unable to authorise request in Openstack queens ( 2020-04-24 04:31:38 -0500 )

10 0 magnum unable to authorise request in Openstack queens ( 2020-04-24 04:31:37 -0500 )

15 0 upgrade openstack cluster ( 2020-04-16 11:12:34 -0500 )

10 0 upgrade openstack cluster ( 2020-04-16 11:12:30 -0500 )

10 0 IBM Storage Drivers for Openstack ( 2020-04-11 09:09:09 -0500 )

10 0 List instances project wise? ( 2020-04-03 14:20:45 -0500 )

0 -10 List instances project wise? ( 2020-04-03 14:20:40 -0500 )

10 0 List instances project wise? ( 2020-04-03 14:07:13 -0500 )

10 0 Can we live OpenStack and let a process run ? ( 2020-03-31 05:36:02 -0500 )

10 0 What is the use of namespace in openstack? ( 2020-03-29 08:44:01 -0500 )

0 -10 What is the use of namespace in openstack? ( 2020-03-29 08:34:47 -0500 )

10 0 What is the use of namespace in openstack? ( 2020-03-29 08:34:43 -0500 )

0 -2 Neutron architecture ( 2020-03-28 02:33:55 -0500 )

0 -2 IBM Storage Drivers for Openstack ( 2020-03-28 02:33:43 -0500 )

10 0 Empty dns_subnets ( 2020-03-17 19:05:43 -0500 )

10 0 Openstack client: "Floating ip pool operations are only available for Compute v2 network" ( 2020-03-08 21:18:27 -0500 )

10 0 how to enable repository for ubuntu Cloud archive : ( 2020-03-04 21:10:07 -0500 )

10 0 Security risk of --allowed-address? ( 2020-02-27 03:57:48 -0500 )

10 0 can we migrate created instance from openstack to opennubela?? ( 2020-02-25 02:54:32 -0500 )

10 0 How to create security group rule with 'ALL' for protocol ( 2020-02-12 00:57:04 -0500 )

15 0 How to create security group rule with 'ALL' for protocol ( 2020-02-12 00:56:57 -0500 )

10 0 Instance creation failing everytime ( 2020-02-11 04:15:08 -0500 )

10 0 partition size guidelines for different nodes ( 2020-01-28 13:48:02 -0500 )

10 0 Openstack queen instance creation error - No valid host was found. ( 2020-01-22 11:40:23 -0500 )

15 0 Ceph + cinder : No valid backend was found. ( 2020-01-21 22:36:37 -0500 )

10 0 Heat - creation of instances ( 2020-01-21 11:41:51 -0500 )

0 10 Heat - creation of instances ( 2020-01-21 11:40:56 -0500 )

0 -10 Heat - creation of instances ( 2020-01-21 11:40:53 -0500 )

10 0 Heat - creation of instances ( 2020-01-21 11:40:49 -0500 )

10 0 Heat - creation of instances ( 2020-01-21 11:40:45 -0500 )

0 10 Heat - creation of instances ( 2020-01-21 11:40:42 -0500 )

10 0 Heat - creation of instances ( 2020-01-21 07:42:38 -0500 )

10 0 What are Similarities and difference between Ceph and iSCSI? ( 2020-01-11 05:42:09 -0500 )

10 0 troubleshooting ( 2020-01-07 07:14:07 -0500 )

0 -10 troubleshooting ( 2020-01-07 07:14:05 -0500 )

10 0 troubleshooting ( 2020-01-07 07:14:05 -0500 )

10 0 openstack release installation ( 2020-01-07 07:13:26 -0500 )

10 0 Cinder Block Storage Node Installation Problem ( 2019-12-31 07:07:28 -0500 )

10 0 CanĀ“t create k8s cluster in magnum, image issue ( 2019-12-22 11:23:52 -0500 )

15 0 how to resume openstack installed through devstack after rebooting the physical system ( 2019-12-18 08:59:43 -0500 )

10 0 network configuration questions ( 2019-12-11 02:16:51 -0500 )

10 0 what are the credentials given to the instance console instance login:() password:() what should we type in the instance login and how to paste the text on console to paste ssh key ( 2019-12-09 03:22:50 -0500 )

10 0 Live Migration of VM Between Two Different Availability Zones/Regions ( 2019-11-28 10:23:55 -0500 )

15 0 image property inheritance to instance ( 2019-11-18 12:05:19 -0500 )

10 0 image property inheritance to instance ( 2019-11-18 12:05:17 -0500 )

10 0 TripleO on ubuntu platform ( 2019-10-27 05:30:43 -0500 )

0 10 TripleO on ubuntu platform ( 2019-10-27 05:30:32 -0500 )

15 0 What's the relationship between bifrost and ironic? the ironic's function can accomplished through bifrost? ( 2019-10-17 23:08:30 -0500 )

15 0 What's the difference between "disk.device.write.requests.rate" and "disk.device.iops" ? ( 2019-10-14 00:40:21 -0500 )

10 0 Packstack Stein - Networking Configuration ( 2019-10-09 09:41:27 -0500 )

10 0 how to find all the property of the flavor? ( 2019-10-09 02:31:41 -0500 )

10 0 What's the difference between "disk.device.write.requests.rate" and "disk.device.iops" ? ( 2019-10-09 01:14:44 -0500 )

15 0 NOVA_Placement service credentials do not work ( 2019-10-07 15:56:28 -0500 )

15 0 Neutron Setup invalid IPv4 or IPv6 address oslo_config ( 2019-10-05 14:39:58 -0500 )

10 0 Is it possible to generate a packstack answer file from existing install? ( 2019-09-30 17:06:04 -0500 )

15 0 Is it possible to generate a packstack answer file from existing install? ( 2019-09-30 17:05:31 -0500 )

15 0 What's the ironic-staging-drivers function? ( 2019-09-26 07:18:52 -0500 )

15 0 Rebuilding MariaDB database ( 2019-09-26 06:50:37 -0500 )

15 0 What's the meaning of `re-deploy` in the bifrost? ( 2019-09-21 23:18:50 -0500 )

0 -15 can we create security group for individual network ( 2019-09-20 09:24:56 -0500 )

15 0 can we create security group for individual network ( 2019-09-20 09:24:54 -0500 )

10 0 can we create security group for individual network ( 2019-09-20 09:22:29 -0500 )

15 0 What's the `devstack` directory function in Ironic? ( 2019-09-19 07:41:15 -0500 )

0 -15 i'm not able to ping or ssh my instance, it is saying no route to host avalable ( 2019-09-13 05:44:13 -0500 )

15 0 i'm not able to ping or ssh my instance, it is saying no route to host avalable ( 2019-09-10 05:53:38 -0500 )

15 0 Can your OpenStack architecture have both self-service & provider networking? ( 2019-09-09 11:10:40 -0500 )

10 0 Can your OpenStack architecture have both self-service & provider networking? ( 2019-09-09 11:09:16 -0500 )

10 0 Can your OpenStack architecture have both self-service & provider networking? ( 2019-09-09 10:24:47 -0500 )

10 0 i'm not able to ping or ssh my instance, it is saying no route to host avalable ( 2019-09-09 06:55:01 -0500 )

10 0 Can your OpenStack architecture have both self-service & provider networking? ( 2019-09-09 01:51:51 -0500 )

15 0 You are not authorized to perform the requested action under admin user ( 2019-09-06 01:59:47 -0500 )

10 0 You are not authorized to perform the requested action under admin user ( 2019-09-06 00:31:28 -0500 )

15 0 openstack instance can not access internet ( 2019-09-02 10:56:17 -0500 )

15 0 Your CPU does not support KVM extention ( 2019-08-25 03:10:54 -0500 )

10 0 Your CPU does not support KVM extention ( 2019-08-24 19:58:45 -0500 )

15 0 Neutron configuration in Network Node ( 2019-08-21 02:00:05 -0500 )

10 0 Neutron configuration in Network Node ( 2019-08-20 08:01:17 -0500 )

15 0 Understand all kinds of networks in openstack ( 2019-08-16 08:10:23 -0500 )

10 0 Understand all kinds of networks in openstack ( 2019-08-16 08:10:18 -0500 )

10 0 How to configure Devstack with Ceilometer, Gnocchi and Aodh components? ( 2019-08-16 05:40:25 -0500 )

10 0 Failed to start Neutron-l3-agent in Network node ( 2019-08-13 07:14:48 -0500 )

15 0 Failed to start Neutron-l3-agent in Network node ( 2019-08-13 07:14:18 -0500 )

10 0 Can I set quotas for CPU-hours, RAM(MB-hr), Disk (GB-hr)? ( 2019-08-10 15:07:47 -0500 )

0 10 Can I set quotas for CPU-hours, RAM(MB-hr), Disk (GB-hr)? ( 2019-08-10 15:07:12 -0500 )

10 0 Can I set quotas for CPU-hours, RAM(MB-hr), Disk (GB-hr)? ( 2019-08-09 07:40:36 -0500 )

10 0 delete instance in error state ( 2019-08-09 04:12:26 -0500 )

0 10 openstack queens without container ( 2019-08-05 16:26:18 -0500 )

10 0 windows 10 hyper-v as compute node ( 2019-08-05 06:07:46 -0500 )

0 10 windows 10 hyper-v as compute node ( 2019-08-05 06:07:38 -0500 )

10 0 How to check OpenStack client versions that are compatible with the version of OpenStack ( 2019-07-27 09:16:14 -0500 )

15 0 How to check OpenStack client versions that are compatible with the version of OpenStack ( 2019-07-27 09:15:07 -0500 )

10 0 swift-glance backend ( 2019-07-23 01:04:03 -0500 )

10 0 How to create openstack instance using script file in crontab???? ( 2019-07-22 15:33:13 -0500 )

10 0 Is ceilometer project is deprecated ? ( 2019-07-19 09:41:11 -0500 )